Weather in Obidimo

Russia / Tula Oblast     54°18′12″N   37°24′13″E
temp.,
°C
wind,
m/s
gust,
m/s
humid.,
%
clouds,
%
prec.,
mm/h
press.,
hPa
HPBL,
m
17 may, tue
tue1700:00+4w5129085 0.0 1008349
03:00+3w5119531 0.0 1008371
06:00+5w61292100 0.1 1006726
09:00+7wnw71385100 0.4 10051224
12:00+6nw71194100 1.4 10051050
15:00+5wnw71294100 3.0 1006723
18:00+6wnw71296100 0.6 1005676
21:00+7nw51197100 1.3 1006567
18 may, wed
wed1800:00+7nnw61294100 5.3 1006555
03:00+6nnw51096100 5.3 1007573
06:00+6n51096100 0.0 1009587
09:00+9n710715 0.1 10111053
12:00+12n785313 0.0 10121828
15:00+14n6848100 0.0 10132215
18:00+11nnw696889 0.1 1014941
21:00+7nnw4108455 0.1 1017376
19 may, thu
thu1900:00+4nw388991 0.0 1018177
03:00+3w368725 0.0 101892
06:00+5w512825 0.0 1017315
09:00+11w7126554 0.0 1015956
12:00+13wnw8115593 0.0 10151644
15:00+13nw696235 0.2 10161371
18:00+12nw486768 0.3 1016800
21:00+9wnw267991 0.4 1016255
20 may, fri
fri2000:00+8wnw378383 0.1 1016206
03:00+5nw239445 0.2 101755
06:00+5nnw25900 0.0 1018174
09:00+9ne44656 0.0 1019878
12:00+11nne3354100 0.1 10191801
15:00+11ne335597 0.1 10181117
18:00+11ene2255100 0.0 10171155
21:00+8ese3567100 0.0 101795
21 may, sat
sat2100:00+7ese2466100 0.0 101590
03:00+6e3767100 0.0 1014171
06:00+5e486872 0.0 1014248
09:00+10e57522 0.0 10121313
12:00+12ene6745100 0.0 10122281
15:00+11ene575151 0.2 10121588
18:00+10ne476465 0.8 1013953
21:00+6ne49765 0.9 1014235